UAE235 EGLL-EBBR

Flight info

Callsign UAE235
Flight time 0h 38m
Altitude 23000
Route DET Q70 KOK
Aircraft B77L/H-SDE1E2E3FGHIJ2J3J4J5M1RWXY/LB1D1

Departure

Time 2026-05-06 17:59
Airport London Heathrow Airport (EGLL)

Arrival

Time 2026-05-06 18:38
Airport Brussels Airport (EBBR)
Time Latitude Longitude Altitude Speed Heading
2026-05-06 17:34 51.46994 -0.48600 93 ft 0 kts 269°
2026-05-06 17:50 51.46994 -0.48590 93 ft 4 kts 269°
2026-05-06 17:50 51.46994 -0.48546 92 ft 4 kts 269°
2026-05-06 17:50 51.46994 -0.48508 92 ft 4 kts 264°
2026-05-06 17:50 51.47002 -0.48475 93 ft 4 kts 202°
2026-05-06 17:51 51.47027 -0.48472 92 ft 3 kts 178°
2026-05-06 17:51 51.47031 -0.48472 92 ft 0 kts 179°
2026-05-06 17:56 51.47014 -0.48471 92 ft 5 kts 177°
2026-05-06 17:56 51.46943 -0.48469 94 ft 15 kts 179°
2026-05-06 17:57 51.46835 -0.48470 94 ft 16 kts 181°
2026-05-06 17:57 51.46722 -0.48469 91 ft 16 kts 179°
2026-05-06 17:57 51.46642 -0.48467 91 ft 5 kts 179°
2026-05-06 17:57 51.46623 -0.48466 91 ft 3 kts 179°
2026-05-06 17:58 51.46582 -0.48466 92 ft 9 kts 179°
2026-05-06 17:58 51.46527 -0.48465 94 ft 7 kts 179°
2026-05-06 17:58 51.46486 -0.48428 94 ft 8 kts 114°
2026-05-06 17:58 51.46482 -0.48338 95 ft 8 kts 91°
2026-05-06 17:59 51.46480 -0.48169 93 ft 42 kts 90°
2026-05-06 17:59 51.46483 -0.46937 97 ft 178 kts 89°
2026-05-06 17:59 51.46483 -0.44567 870 ft 235 kts 90°
2026-05-06 17:59 51.46451 -0.41755 2207 ft 261 kts 94°
2026-05-06 18:00 51.45927 -0.39099 3627 ft 249 kts 120°
2026-05-06 18:00 51.44958 -0.36728 4523 ft 260 kts 125°
2026-05-06 18:00 51.43994 -0.34212 5433 ft 269 kts 117°
2026-05-06 18:00 51.43257 -0.31427 5946 ft 274 kts 109°
2026-05-06 18:01 51.42752 -0.28454 5996 ft 279 kts 102°
2026-05-06 18:01 51.42355 -0.25427 6006 ft 277 kts 102°
2026-05-06 18:01 51.41959 -0.22433 6000 ft 274 kts 102°
2026-05-06 18:01 51.41556 -0.19449 6002 ft 274 kts 102°
2026-05-06 18:02 51.41154 -0.16509 6007 ft 274 kts 102°
2026-05-06 18:02 51.40746 -0.13532 6005 ft 274 kts 102°
2026-05-06 18:02 51.40334 -0.10541 6005 ft 275 kts 102°
2026-05-06 18:02 51.39921 -0.07557 6000 ft 275 kts 102°
2026-05-06 18:03 51.39507 -0.04560 6004 ft 275 kts 102°
2026-05-06 18:03 51.39094 -0.01574 6008 ft 275 kts 102°
2026-05-06 18:03 51.38680 0.01398 6232 ft 270 kts 102°
2026-05-06 18:03 51.38271 0.04334 6687 ft 273 kts 103°
2026-05-06 18:04 51.37851 0.07339 7143 ft 279 kts 103°
2026-05-06 18:04 51.37425 0.10383 7607 ft 281 kts 103°
2026-05-06 18:04 51.36996 0.13446 8064 ft 282 kts 103°
2026-05-06 18:04 51.36570 0.16478 8501 ft 284 kts 103°
2026-05-06 18:05 51.36136 0.19561 8950 ft 285 kts 103°
2026-05-06 18:05 51.35700 0.22645 9402 ft 286 kts 103°
2026-05-06 18:05 51.35258 0.25768 9849 ft 287 kts 103°
2026-05-06 18:05 51.34817 0.28881 10294 ft 289 kts 103°
2026-05-06 18:06 51.34368 0.32040 10757 ft 292 kts 103°
2026-05-06 18:06 51.33917 0.35217 11216 ft 294 kts 103°
2026-05-06 18:06 51.33460 0.38430 11664 ft 297 kts 103°
2026-05-06 18:06 51.33000 0.41649 12119 ft 299 kts 103°
2026-05-06 18:07 51.32533 0.44907 12573 ft 301 kts 103°
2026-05-06 18:07 51.32065 0.48170 13038 ft 302 kts 103°
2026-05-06 18:07 51.31591 0.51464 13516 ft 304 kts 103°
2026-05-06 18:07 51.31120 0.54722 13984 ft 306 kts 103°
2026-05-06 18:08 51.30639 0.58046 14461 ft 308 kts 103°
2026-05-06 18:08 51.30228 0.61415 14938 ft 311 kts 97°
2026-05-06 18:08 51.30061 0.64876 15424 ft 313 kts 92°
2026-05-06 18:08 51.29974 0.68372 15891 ft 316 kts 92°
2026-05-06 18:09 51.29891 0.71898 16383 ft 319 kts 92°
2026-05-06 18:09 51.29793 0.75447 16858 ft 321 kts 92°
2026-05-06 18:09 51.29680 0.79044 17350 ft 332 kts 93°
2026-05-06 18:09 51.29551 0.82840 17880 ft 354 kts 93°
2026-05-06 18:10 51.29406 0.86859 18387 ft 365 kts 93°
2026-05-06 18:10 51.29254 0.90914 18863 ft 369 kts 93°
2026-05-06 18:10 51.29098 0.95035 19344 ft 373 kts 93°
2026-05-06 18:10 51.28941 0.99136 19812 ft 377 kts 94°
2026-05-06 18:11 51.28778 1.03321 20308 ft 380 kts 94°
2026-05-06 18:11 51.28611 1.07557 20776 ft 382 kts 94°
2026-05-06 18:11 51.28441 1.11798 21253 ft 385 kts 94°
2026-05-06 18:11 51.28267 1.16079 21731 ft 387 kts 94°
2026-05-06 18:12 51.28091 1.20374 22206 ft 389 kts 94°
2026-05-06 18:12 51.27915 1.24664 22689 ft 391 kts 94°
2026-05-06 18:12 51.27734 1.29028 23030 ft 396 kts 94°
2026-05-06 18:12 51.27550 1.33427 22999 ft 398 kts 94°
2026-05-06 18:13 51.27365 1.37830 23003 ft 395 kts 94°
2026-05-06 18:13 51.27183 1.42140 22997 ft 393 kts 94°
2026-05-06 18:13 51.26996 1.46489 23000 ft 393 kts 94°
2026-05-06 18:13 51.26784 1.50899 23004 ft 393 kts 96°
2026-05-06 18:14 51.26341 1.55150 23004 ft 393 kts 101°
2026-05-06 18:14 51.25787 1.59447 23007 ft 394 kts 102°
2026-05-06 18:14 51.25218 1.63713 23005 ft 394 kts 102°
2026-05-06 18:14 51.24645 1.68001 23003 ft 395 kts 102°
2026-05-06 18:15 51.24078 1.72289 23002 ft 395 kts 102°
2026-05-06 18:15 51.23514 1.76556 23002 ft 395 kts 102°
2026-05-06 18:15 51.22951 1.80852 23001 ft 395 kts 102°
2026-05-06 18:15 51.22393 1.85137 23001 ft 395 kts 102°
2026-05-06 18:16 51.21834 1.89448 23001 ft 395 kts 102°
2026-05-06 18:16 51.21280 1.93734 23000 ft 395 kts 102°
2026-05-06 18:16 51.20724 1.98022 23001 ft 395 kts 102°
2026-05-06 18:16 51.20169 2.02316 23000 ft 395 kts 102°
2026-05-06 18:17 51.19624 2.06539 23001 ft 395 kts 102°
2026-05-06 18:17 51.19066 2.10822 23002 ft 395 kts 102°
2026-05-06 18:17 51.18505 2.15107 23001 ft 395 kts 102°
2026-05-06 18:17 51.17942 2.19383 23002 ft 395 kts 102°
2026-05-06 18:18 51.17377 2.23658 23000 ft 394 kts 102°
2026-05-06 18:18 51.16809 2.27939 23001 ft 394 kts 102°
2026-05-06 18:18 51.16241 2.32209 23001 ft 394 kts 102°
2026-05-06 18:18 51.15670 2.36488 23001 ft 394 kts 102°
2026-05-06 18:19 51.15099 2.40756 23001 ft 394 kts 102°
2026-05-06 18:19 51.14526 2.45029 23002 ft 394 kts 102°
2026-05-06 18:19 51.13951 2.49298 23001 ft 394 kts 102°
2026-05-06 18:19 51.13375 2.53566 23001 ft 394 kts 102°
2026-05-06 18:20 51.12806 2.57769 23001 ft 394 kts 102°
2026-05-06 18:20 51.12227 2.62039 23002 ft 394 kts 102°
2026-05-06 18:20 51.11646 2.66302 23002 ft 394 kts 102°
2026-05-06 18:20 51.11065 2.70559 23001 ft 394 kts 102°
2026-05-06 18:21 51.10485 2.74799 22856 ft 389 kts 102°
2026-05-06 18:21 51.09909 2.78993 22364 ft 391 kts 102°
2026-05-06 18:21 51.09326 2.83223 21848 ft 388 kts 102°
2026-05-06 18:21 51.08753 2.87375 21368 ft 384 kts 102°
2026-05-06 18:22 51.08180 2.91508 20861 ft 381 kts 102°
2026-05-06 18:22 51.07511 2.95571 20353 ft 378 kts 109°
2026-05-06 18:22 51.06591 2.99465 19855 ft 375 kts 111°
2026-05-06 18:22 51.05659 3.03268 19366 ft 373 kts 111°
2026-05-06 18:23 51.04718 3.07107 18869 ft 371 kts 111°
2026-05-06 18:23 51.03789 3.10916 18370 ft 369 kts 111°
2026-05-06 18:23 51.02870 3.14706 17876 ft 366 kts 111°
2026-05-06 18:23 51.01959 3.18475 17374 ft 364 kts 111°
2026-05-06 18:24 51.01060 3.22199 16882 ft 361 kts 111°
2026-05-06 18:24 51.00163 3.25916 16382 ft 359 kts 111°
2026-05-06 18:24 50.99276 3.29590 15872 ft 356 kts 111°
2026-05-06 18:24 50.98392 3.33249 15379 ft 353 kts 111°
2026-05-06 18:25 50.97517 3.36865 14880 ft 350 kts 111°
2026-05-06 18:25 50.96645 3.40465 14385 ft 348 kts 111°
2026-05-06 18:25 50.95778 3.44037 13887 ft 345 kts 111°
2026-05-06 18:25 50.94917 3.47580 13289 ft 345 kts 111°
2026-05-06 18:26 50.94067 3.51069 12668 ft 341 kts 111°
2026-05-06 18:26 50.93220 3.54544 12050 ft 334 kts 111°
2026-05-06 18:26 50.92388 3.57949 11429 ft 330 kts 111°
2026-05-06 18:26 50.91561 3.61330 10807 ft 327 kts 111°
2026-05-06 18:27 50.90747 3.64651 10178 ft 318 kts 111°
2026-05-06 18:27 50.89964 3.67841 9539 ft 301 kts 111°
2026-05-06 18:27 50.89222 3.70861 8902 ft 288 kts 111°
2026-05-06 18:27 50.88507 3.73769 8276 ft 280 kts 111°
2026-05-06 18:28 50.87809 3.76602 7623 ft 276 kts 111°
2026-05-06 18:28 50.87106 3.79450 6878 ft 277 kts 111°
2026-05-06 18:28 50.86405 3.82286 6136 ft 277 kts 111°
2026-05-06 18:28 50.85704 3.85120 5385 ft 276 kts 111°
2026-05-06 18:29 50.85009 3.87931 4629 ft 272 kts 111°
2026-05-06 18:29 50.84336 3.90641 3934 ft 265 kts 111°
2026-05-06 18:29 50.83879 3.92483 3714 ft 270 kts 111°
2026-05-06 18:29 50.83193 3.95244 3523 ft 268 kts 111°
2026-05-06 18:30 50.82296 3.98848 3347 ft 264 kts 111°
2026-05-06 18:30 50.81628 4.01535 3334 ft 263 kts 111°
2026-05-06 18:30 50.80953 4.04239 3333 ft 264 kts 111°
2026-05-06 18:30 50.80509 4.06019 3331 ft 264 kts 111°
2026-05-06 18:31 50.79832 4.08724 3356 ft 264 kts 111°
2026-05-06 18:31 50.79155 4.11426 3241 ft 266 kts 112°
2026-05-06 18:31 50.78465 4.14155 3184 ft 269 kts 112°
2026-05-06 18:31 50.77777 4.16886 3129 ft 266 kts 112°
2026-05-06 18:32 50.77114 4.19526 3088 ft 250 kts 112°
2026-05-06 18:32 50.76493 4.22000 3062 ft 235 kts 112°
2026-05-06 18:32 50.75895 4.24382 3093 ft 234 kts 112°
2026-05-06 18:32 50.75296 4.26766 3004 ft 230 kts 112°
2026-05-06 18:33 50.74705 4.29116 2700 ft 231 kts 112°
2026-05-06 18:33 50.74121 4.31434 2406 ft 230 kts 112°
2026-05-06 18:33 50.73531 4.33768 2166 ft 227 kts 112°
2026-05-06 18:33 50.72949 4.36067 2128 ft 226 kts 112°
2026-05-06 18:34 50.72400 4.38410 2089 ft 228 kts 102°
2026-05-06 18:34 50.72496 4.40855 2091 ft 228 kts 67°
2026-05-06 18:34 50.73473 4.42834 2097 ft 231 kts 33°
2026-05-06 18:34 50.74923 4.43666 2081 ft 215 kts
2026-05-06 18:35 50.76353 4.44114 2075 ft 207 kts 13°
2026-05-06 18:35 50.77746 4.44687 2083 ft 206 kts 14°
2026-05-06 18:35 50.79135 4.45257 2091 ft 207 kts 14°
2026-05-06 18:35 50.80527 4.45821 1840 ft 211 kts 14°
2026-05-06 18:36 50.81932 4.46391 1569 ft 206 kts 14°
2026-05-06 18:36 50.83278 4.46939 1292 ft 192 kts 14°
2026-05-06 18:36 50.84526 4.47446 1080 ft 178 kts 14°
2026-05-06 18:36 50.85679 4.47916 847 ft 163 kts 14°
2026-05-06 18:37 50.86722 4.48341 637 ft 146 kts 14°
2026-05-06 18:37 50.87679 4.48742 405 ft 141 kts 14°
2026-05-06 18:37 50.88631 4.49115 227 ft 141 kts 14°
2026-05-06 18:37 50.89518 4.49476 145 ft 115 kts 15°
2026-05-06 18:38 50.90102 4.49719 140 ft 64 kts 14°
2026-05-06 18:38 50.90457 4.49861 141 ft 47 kts 14°
2026-05-06 18:38 50.90673 4.49928 140 ft 35 kts 358°
2026-05-06 18:38 50.90852 4.49855 127 ft 1 kts 317°
2026-05-06 18:40 50.90852 4.49854 127 ft 0 kts 315°
2026-05-06 18:40 50.90855 4.49842 129 ft 4 kts 292°
2026-05-06 18:40 50.90828 4.49753 130 ft 11 kts 210°
2026-05-06 18:41 50.90757 4.49716 137 ft 13 kts 196°
2026-05-06 18:41 50.90620 4.49662 137 ft 17 kts 195°
2026-05-06 18:41 50.90505 4.49615 140 ft 17 kts 195°
2026-05-06 18:41 50.90387 4.49561 140 ft 18 kts 196°
2026-05-06 18:42 50.90263 4.49513 142 ft 18 kts 194°
2026-05-06 18:42 50.90138 4.49461 142 ft 18 kts 195°
2026-05-06 18:42 50.90051 4.49416 146 ft 13 kts 212°
2026-05-06 18:42 50.89995 4.49306 148 ft 13 kts 239°
2026-05-06 18:43 50.89962 4.49170 149 ft 14 kts 245°
2026-05-06 18:43 50.89914 4.49001 151 ft 18 kts 245°
2026-05-06 18:43 50.89873 4.48858 151 ft 12 kts 246°
2026-05-06 18:43 50.89844 4.48747 152 ft 5 kts 260°
2026-05-06 18:44 50.89855 4.48686 152 ft 7 kts 309°
2026-05-06 18:44 50.89901 4.48643 151 ft 9 kts 334°
2026-05-06 18:44 50.89912 4.48635 151 ft 0 kts 334°